Regional Weather Roundup
Issued by NWS

Home | Current Version | Previous Version | Text Only | Print | Product List | Glossary Off
Versions: 1 2 3 4 5 6 7 8 9 10 11 12 13 14 15 16 17 18 19 20 21 22 23 24 25 26 27 28 29 30 31 32 33 34 35 36 37 38 39 40 41 42 43 44 45 46 47 48 49 50

000
ASUS43 KLSX 211007
RWRMO

WEATHER SUMMARY FOR MISSOURI
NATIONAL WEATHER SERVICE SPRINGFIELD MO
500 AM CDT FRI JUL 21 2017

NOTE: "FAIR" INDICATES FEW OR NO CLOUDS BELOW 12,000 FEET WITH NO
       SIGNIFICANT WEATHER AND/OR OBSTRUCTIONS TO VISIBILITY.
       CURRENT SKY AND/OR WEATHER CONDITIONS ARE NOT AVAILABLE FOR
       CHILLICOTHE AND FARMINGTON.

MOZ001>031-035>038-043-044-053-054-211100-
...NORTHERN AND WESTERN MISSOURI...

CITY           SKY/WX    TMP DP  RH WIND       PRES   REMARKS
KANSAS CTY INT CLEAR     79  72  79 S12       29.94S
KANSAS C DTWN  CLEAR     85  72  65 SW10      29.92F HX  91
LEE`S SUMMIT   CLEAR     81  73  76 SW10      29.96S
ST JOSEPH      CLOUDY    78  75  90 S7        29.91F
CHILLICOTHE      N/A     77  75  93 S3        29.95S
KIRKSVILLE     CLOUDY    78  75  90 S5        29.97S

$$
MOZ066>068-077>081-088>096-101>105-211100-
...SOUTHWEST MISSOURI...

CITY           SKY/WX    TMP DP  RH WIND       PRES   REMARKS
SPRINGFIELD    CLEAR     73  71  93 S5        30.02S
JOPLIN         PTCLDY    78  73  84 S9        30.00S
BRANSON        PTCLDY    75  72  88 CALM      30.05R

$$
MOZ032>034-039>042-045>050-055>058-069>072-211100-
...CENTRAL MISSOURI...

CITY           SKY/WX    TMP DP  RH WIND       PRES   REMARKS
COLUMBIA       CLEAR     77  73  87 S3        29.99R
JEFFERSON CITY PTCLDY    77  75  93 SE3       29.97S
ROLLA          CLEAR     74  71  91 SW8       30.01S
WHITEMAN AFB   CLEAR     76  76 100 S6        29.96S
WARRENSBURG    CLEAR     73  70  88 S3        29.95F
OSAGE BEACH    CLEAR     72  69  90 CALM      30.01R

$$
MOZ051-052-059>065-211100-
...EAST CENTRAL MISSOURI...

CITY           SKY/WX    TMP DP  RH WIND       PRES   REMARKS
ST LOUIS INTL  CLEAR     85  71  63 SW3       29.97S HX  90
SPIRIT OF STL  PTCLDY    79  73  82 CALM      29.96S
ST CHARLES     CLEAR     77  75  93 MISG      29.96R

$$
MOZ072>076-082>087-097>100-106>115-211100-
...SOUTH CENTRAL AND SOUTHEAST MISSOURI...

CITY           SKY/WX    TMP DP  RH WIND       PRES   REMARKS
CAPE GIRARDEAU CLEAR     75  73  93 S3        29.99R FOG
FARMINGTON     CLEAR     76  73  91 CALM      30.02R
POPLAR BLUFF   CLEAR     77  77 100 CALM      29.99S
WEST PLAINS    CLEAR     76  73  91 CALM      30.04F

$$




USA.gov is the U.S. government's official web portal to all federal, state and local government web resources and services.